Theta_e
304 304 303 303 304 304 304 305 306 306 306 304 301 303 294 294 289 306 311 314 311 302 294 296 294 292 296 301 300 302 299 298 300 298 299 296 300 299 297 296 295 296 296 296 294 295 292 293 292 295 297 297 299 301 300 302 301 301 297 300 300 296 291 288 289 294 297 295 298 298 298 298 296 297 298 296 292 294 291 289 289 288 288 285 286 282 287
304 304 303 303 304 304 304 305 305 306 306 303 303 297 292 293 293 298 307 313 309 298 287 288 291 293 298 298 297 302 299 298 297 296 298 296 297 296 297 299 299 296 299 297 291 296 288 295 294 293 298 296 303 300 301 301 299 298 297 295 300 290 291 290 286 286 288 291 294 294 297 296 292 293 296 297 297 297 295 290 291 287 288 288 286 280 287
304 304 304 303 303 304 304 304 304 306 306 306 303 293 294 293 296 298 301 304 303 293 295 293 292 293 293 294 293 295 297 300 299 298 297 300 299 298 296 298 299 298 298 297 298 298 294 290 297 297 299 297 300 303 301 301 299 301 304 299 302 293 292 289 283 281 279 280 281 284 286 288 292 294 295 296 295 294 291 287 289 285 288 289 286 285 292
304 304 304 303 303 303 304 303 304 305 305 305 302 298 294 289 282 291 295 299 295 297 299 296 294 293 292 291 293 295 293 298 300 300 299 300 300 300 300 300 300 298 297 295 295 294 297 293 292 295 294 297 299 302 302 301 301 299 297 299 300 291 295 293 290 287 286 288 291 295 296 292 288 291 292 294 296 296 294 290 288 285 288 287 289 290 291
304 304 304 304 303 303 303 303 303 304 305 305 301 298 295 292 285 288 286 295 294 292 296 295 296 292 295 288 293 291 293 295 296 301 295 299 299 299 299 298 295 295 296 294 295 296 295 297 295 294 295 299 298 298 299 299 297 294 295 297 294 289 288 292 293 292 292 294 294 296 296 292 293 291 292 294 294 294 290 288 286 292 288 284 291 293 290
304 305 304 304 304 303 303 303 303 304 304 304 301 291 294 286 289 292 295 290 287 287 289 293 293 295 295 291 294 292 291 292 290 297 298 299 300 295 296 297 297 297 295 295 290 293 294 295 292 296 297 297 298 296 297 295 295 296 296 299 296 289 287 292 292 292 294 295 295 296 295 295 294 294 294 293 294 293 288 289 293 293 287 285 292 294 292
304 304 305 304 304 303 303 303 303 304 304 305 299 289 293 293 293 292 297 289 293 292 293 293 293 292 293 291 292 290 290 290 293 294 294 296 295 297 290 293 295 296 297 295 292 293 288 289 294 292 292 294 295 292 294 296 296 296 293 294 294 292 287 290 291 290 291 293 294 295 293 293 293 294 294 295 295 294 293 292 294 293 292 293 293 294 293
304 303 304 304 304 304 303 303 303 303 304 303 297 294 291 288 288 287 293 293 293 293 293 292 292 289 292 289 290 291 290 289 293 295 294 290 293 298 292 293 296 296 296 295 291 293 294 295 292 297 295 291 296 294 295 292 292 293 290 293 294 292 286 291 289 286 287 291 293 294 293 293 291 293 293 293 294 294 295 294 294 295 293 294 294 293 293
304 303 303 305 303 303 303 303 303 303 303 297 293 293 296 296 296 295 290 285 288 291 292 291 289 288 290 288 290 291 291 291 294 293 297 294 293 295 293 295 295 296 295 295 294 297 296 297 297 298 298 292 298 294 294 298 289 289 289 290 291 293 288 292 288 284 285 289 290 290 291 291 290 289 290 291 291 289 292 292 295 293 290 293 293 290 291
304 304 303 304 304 302 303 303 303 303 303 298 296 291 298 298 300 298 293 285 289 287 290 290 290 285 289 290 290 290 290 293 295 290 296 297 297 297 296 296 295 293 293 292 295 299 299 299 298 298 299 301 300 300 300 300 295 289 289 291 291 291 289 289 288 284 284 289 290 289 289 288 285 286 290 292 293 294 295 295 297 296 296 291 288 290 296
303 303 303 303 304 303 302 303 303 303 301 296 294 293 296 294 293 293 293 285 287 288 288 287 287 289 292 292 291 293 292 293 294 288 288 296 297 300 298 296 293 291 292 296 298 298 298 298 299 301 300 300 299 299 299 300 299 297 293 289 289 290 290 289 292 284 285 288 288 289 285 278 280 292 296 296 293 294 292 292 294 297 297 294 296 297 299
303 303 303 302 304 303 303 304 303 302 301 300 299 296 298 298 297 294 289 282 284 289 287 285 286 289 290 293 293 292 291 291 292 295 291 294 296 298 298 297 295 288 297 298 299 298 300 302 300 299 299 298 298 299 299 297 298 299 299 294 289 288 289 289 290 286 285 288 287 284 277 280 292 296 298 298 297 297 295 296 297 298 298 298 297 298 298
301 302 302 301 304 303 304 303 303 302 302 301 300 295 299 300 297 293 290 286 283 285 284 286 290 290 291 291 291 292 294 294 295 295 295 294 292 295 297 296 294 295 299 298 298 296 291 287 289 291 291 293 294 296 295 296 296 298 298 298 294 288 288 289 288 288 288 286 284 277 279 288 294 296 297 299 298 298 296 294 297 298 298 299 297 298 300
301 301 302 301 303 303 303 303 303 302 302 302 298 298 299 300 294 291 289 285 283 287 288 287 288 288 288 289 290 291 293 293 294 295 292 295 293 293 296 298 298 299 297 298 294 294 288 288 284 286 286 287 287 286 289 294 295 296 296 297 297 294 290 290 285 289 281 284 283 282 290 289 290 292 294 295 293 293 292 287 292 298 299 299 298 299 300
300 301 301 302 302 303 302 303 303 302 303 302 300 299 299 300 298 294 294 290 284 286 288 282 285 287 288 288 290 287 287 288 289 289 293 295 293 296 296 298 299 299 298 294 290 292 286 287 281 280 283 282 278 281 290 286 292 296 296 297 297 296 289 290 286 285 288 283 281 282 282 279 285 293 297 300 300 300 300 294 290 299 300 302 300 299 300
299 300 300 301 300 303 302 303 303 302 302 302 299 297 298 300 300 298 293 288 286 280 284 289 291 289 287 287 289 287 285 286 286 287 286 286 287 292 294 298 299 298 297 294 293 287 285 282 279 280 278 281 285 284 281 287 287 291 295 296 295 295 296 291 288 285 286 283 280 279 278 282 290 292 295 298 299 300 300 293 287 296 298 299 301 300 301
299 299 300 301 301 301 302 301 303 303 303 302 298 297 297 301 298 296 292 290 288 282 292 292 291 290 288 286 287 286 287 285 286 283 282 284 286 287 289 295 298 297 294 290 288 285 283 281 282 281 282 284 280 280 286 284 283 286 288 291 290 289 290 289 284 283 285 283 281 279 285 284 289 291 294 295 298 302 295 283 284 296 298 299 299 298 299
300 300 300 301 301 300 302 301 302 302 303 302 298 298 298 300 300 298 294 289 285 286 291 293 290 286 285 287 285 288 290 287 287 287 285 286 286 286 286 289 287 296 296 286 286 283 282 281 278 279 277 285 285 285 278 284 283 284 286 286 286 286 287 287 283 285 284 284 282 285 285 291 293 294 297 298 301 298 286 280 289 297 298 300 300 299 300
299 299 300 301 301 300 301 302 302 302 302 302 299 299 298 300 300 299 294 290 287 283 291 295 295 291 292 294 289 290 290 288 287 284 283 283 285 287 288 288 292 284 290 285 286 282 280 280 284 282 279 282 284 278 284 282 281 287 287 284 284 285 285 286 287 284 283 284 281 282 286 292 296 297 298 300 294 285 284 294 298 298 299 300 300 300 300
298 299 299 300 300 300 301 301 302 302 301 302 299 296 297 300 300 299 293 287 289 285 292 292 293 290 294 290 287 287 288 288 288 285 284 280 288 288 287 283 289 289 287 288 281 283 280 278 281 283 281 281 282 286 282 283 287 284 285 287 285 285 284 282 283 285 286 285 282 280 277 290 298 296 295 297 288 290 297 298 298 298 298 299 298 299 300
297 298 298 299 300 300 301 302 301 301 301 302 300 296 294 299 300 300 299 294 289 284 286 294 294 294 294 292 293 293 290 286 287 285 287 286 290 287 278 278 284 285 282 285 279 280 282 279 281 281 284 283 283 284 279 281 283 287 286 285 285 289 283 283 286 289 282 282 279 280 288 290 294 293 289 292 295 295 293 294 293 298 298 296 297 298 299
297 298 298 298 298 300 301 301 301 300 303 301 300 297 293 297 300 300 299 297 291 286 290 294 295 294 296 297 297 296 294 294 294 294 289 286 290 289 286 286 286 287 287 288 285 284 285 284 285 282 280 282 286 281 283 281 278 284 287 286 279 289 286 286 284 289 287 284 288 291 292 293 294 293 293 294 296 297 295 294 294 293 296 296 294 295 297
297 297 297 298 298 300 300 301 300 300 302 302 300 295 292 296 297 299 298 291 295 294 293 292 294 294 296 296 299 297 296 298 299 296 294 289 287 290 287 286 286 291 288 288 285 285 285 285 281 285 282 283 281 280 280 280 280 284 282 289 288 292 288 288 287 286 291 290 290 292 291 291 292 294 293 292 293 295 294 294 293 294 294 294 293 293 294
296 297 298 298 299 299 299 300 300 301 301 301 300 295 294 296 298 297 293 293 289 285 289 291 288 285 288 290 295 296 296 296 297 298 300 296 285 286 290 291 293 287 286 290 292 286 285 286 284 286 279 283 285 280 278 278 280 284 282 282 286 291 291 287 285 286 285 281 292 290 289 291 292 292 293 294 294 293 293 292 292 293 294 294 295 295 294
296 297 297 298 298 299 298 299 300 300 301 300 299 298 298 296 297 296 291 284 284 284 279 283 285 291 294 297 298 295 296 298 299 298 297 296 292 287 286 291 294 288 287 289 288 288 286 281 282 281 277 283 285 277 284 279 278 285 279 281 283 283 293 286 285 285 282 282 287 288 290 290 291 292 292 293 294 295 294 294 294 295 295 295 295 295 293
295 297 297 297 299 299 298 298 300 300 300 300 300 295 293 293 297 297 293 289 289 287 280 280 284 293 294 293 291 295 299 298 297 297 296 296 296 295 292 293 291 294 293 292 289 286 285 284 284 283 280 280 287 280 280 283 282 285 283 282 286 285 287 279 284 281 283 286 287 288 290 290 291 293 293 294 294 295 295 295 294 293 293 294 295 295 294
295 295 296 298 298 298 299 299 299 300 300 300 298 296 295 295 298 294 291 289 285 279 282 280 284 285 290 289 294 296 297 296 296 295 295 296 295 295 294 292 290 291 290 288 290 288 286 284 283 280 283 281 285 283 284 282 283 281 281 284 287 285 281 285 284 279 280 281 284 287 282 282 287 290 292 292 293 293 294 295 294 294 294 295 295 295 295
295 295 297 297 297 298 299 299 300 300 300 300 297 295 296 295 295 296 296 294 287 281 281 281 282 283 292 287 293 294 295 295 295 294 294 294 295 294 292 291 290 288 287 286 283 283 283 281 280 284 285 285 283 280 284 285 284 281 281 282 286 282 283 284 280 280 279 284 286 288 288 287 289 291 292 293 294 294 293 294 295 296 296 296 295 294 294
295 294 298 297 297 298 297 299 300 300 300 299 294 293 293 296 296 296 295 297 295 286 285 285 287 285 278 283 293 292 294 293 293 293 293 293 294 293 292 291 290 290 289 288 286 284 283 282 285 283 282 286 283 280 282 278 278 277 280 285 286 286 288 286 285 285 285 287 287 288 287 286 288 291 293 294 295 294 293 293 294 295 295 295 295 295 294
296 296 297 298 298 299 299 299 300 299 299 294 290 286 284 285 294 294 295 294 293 290 283 279 276 280 286 282 283 290 291 293 292 292 291 291 291 291 292 290 290 291 288 286 285 281 283 283 285 286 287 291 283 282 279 279 278 279 285 286 287 288 288 288 288 286 284 289 289 290 290 291 293 294 294 295 295 295 293 292 293 293 294 294 294 294 294
295 296 296 297 298 298 298 300 300 300 297 289 287 282 280 278 285 295 297 295 295 290 285 284 279 285 281 284 286 286 289 290 289 290 290 290 290 291 292 291 290 290 285 286 285 284 285 281 283 283 287 287 285 281 278 278 276 279 283 285 286 287 287 288 290 291 290 290 290 291 291 291 292 293 292 293 294 294 293 293 292 291 291 291 291 292 292
294 296 297 298 298 298 297 300 300 298 291 288 286 284 285 288 291 294 296 294 293 287 284 279 279 278 279 282 282 286 289 289 289 289 289 290 287 290 289 290 286 290 288 284 285 285 283 284 283 283 283 286 286 281 280 278 276 277 283 285 286 287 288 288 288 289 289 289 289 287 287 288 290 288 288 292 292 293 293 293 294 294 292 291 291 291 290
295 297 298 298 298 298 297 298 299 295 289 292 295 296 296 297 297 296 296 294 290 286 287 282 276 279 277 278 283 282 287 286 285 286 284 289 285 288 284 288 287 286 289 285 281 280 284 283 284 281 284 287 282 280 279 277 279 283 284 285 286 287 287 288 288 288 288 289 288 283 283 285 286 289 291 292 292 292 293 292 293 292 290 288 288 288 288
296 297 298 297 297 298 298 298 298 296 294 290 286 285 292 298 297 296 294 290 286 284 285 280 277 275 276 284 277 282 288 282 281 284 280 286 286 286 283 285 285 282 285 282 284 283 284 284 281 282 285 282 284 280 276 279 283 284 285 286 286 283 282 284 286 287 281 274 274 275 276 277 279 282 285 290 292 293 293 292 291 289 288 288 289 290 290
297 296 296 297 298 298 298 297 290 288 285 287 287 289 295 298 297 296 293 288 280 279 279 279 281 276 274 274 274 280 286 283 280 283 280 284 288 283 284 281 283 279 281 287 282 282 281 281 284 280 277 283 280 276 278 281 282 284 284 285 273 272 276 277 280 275 271 272 270 271 273 276 278 281 283 286 288 290 290 290 291 290 289 289 290 290 290
296 297 297 297 297 297 293 290 287 286 285 284 285 292 297 298 297 293 290 287 286 280 278 278 279 276 276 271 272 278 286 281 283 284 283 284 281 285 284 282 277 280 285 282 278 282 279 284 282 276 282 278 275 279 281 283 283 282 275 269 267 268 268 268 268 268 268 268 269 271 273 277 279 278 279 280 282 285 286 287 289 290 289 289 289 290 290
295 297 297 296 291 286 283 284 287 286 286 289 293 296 295 292 289 288 286 286 285 287 281 278 275 276 278 276 279 280 282 275 283 280 281 280 278 283 282 279 276 282 281 278 279 278 282 288 281 276 278 275 278 277 270 269 269 268 267 265 264 265 265 266 266 265 264 266 268 273 275 272 271 272 272 273 274 275 275 275 278 281 284 287 288 288 288
296 296 289 286 285 281 278 280 282 291 295 294 293 287 284 286 281 282 282 279 282 284 281 282 276 279 280 277 271 282 281 278 283 277 279 282 279 278 282 279 279 281 272 276 278 284 282 281 278 276 277 279 268 264 264 264 264 264 263 262 262 262 263 263 264 263 263 265 269 269 266 265 266 268 268 268 269 270 271 272 273 274 276 281 285 288 288
292 287 286 285 282 279 278 281 293 295 291 288 286 281 277 280 280 276 276 279 280 276 281 280 277 280 278 277 279 284 280 279 278 279 275 281 278 273 280 273 279 279 274 276 278 286 275 276 277 277 276 278 272 264 261 263 262 262 261 261 261 261 261 261 262 262 262 263 264 263 262 262 262 263 265 265 266 268 268 269 270 273 275 277 280 284 286
284 281 280 279 279 282 289 292 294 289 286 280 280 280 273 275 276 271 278 273 273 278 280 275 280 279 280 277 277 277 284 279 275 275 277 278 283 275 278 277 279 275 270 272 276 283 275 272 275 275 274 279 271 260 259 258 258 258 259 259 259 260 260 260 260 261 261 261 261 261 262 262 263 263 263 263 264 263 264 266 269 270 270 273 276 278 281
282 282 281 279 284 286 287 287 286 284 281 277 275 275 275 270 271 274 274 271 272 274 279 278 278 276 278 278 280 277 283 283 279 279 279 274 282 279 272 268 281 271 270 271 278 276 275 272 274 273 275 266 259 259 257 257 256 258 257 257 257 258 259 258 258 259 259 258 259 259 260 261 261 261 262 262 262 262 263 265 265 266 267 269 272 275 280
284 283 284 286 285 286 285 281 281 277 276 277 273 268 271 272 273 270 272 271 271 274 272 277 274 276 276 279 279 281 278 279 281 280 276 271 279 272 271 273 273 268 267 274 279 276 275 270 270 272 266 256 259 255 256 254 255 255 255 256 256 257 256 256 256 257 258 257 257 258 259 259 259 260 260 260 261 261 262 262 263 264 266 269 272 275 279
290 288 287 283 282 279 280 276 276 277 271 269 269 266 269 267 270 271 270 272 270 273 275 278 279 282 279 280 276 280 278 281 278 277 275 272 280 277 272 270 269 266 271 278 274 272 270 269 269 271 258 256 256 255 254 254 255 254 255 256 256 256 256 255 256 255 256 257 257 257 257 257 258 258 259 259 260 260 261 262 263 263 265 267 269 272 275
286 285 281 279 278 277 278 269 277 273 269 269 269 264 266 266 267 268 266 270 272 273 276 274 276 277 274 280 278 278 279 279 281 276 275 276 275 272 272 268 269 275 277 271 272 269 270 272 272 264 257 257 255 255 254 254 253 254 254 256 256 255 255 255 255 255 255 256 257 257 257 257 257 258 258 259 259 259 259 260 261 262 263 265 267 270 273
280 277 276 274 272 275 273 266 273 270 267 267 272 269 269 268 270 269 271 270 273 274 277 278 279 277 274 276 279 278 281 276 283 275 270 274 271 274 269 269 274 274 270 268 269 271 268 270 262 256 257 254 255 253 254 253 254 253 254 254 254 254 254 254 254 254 255 255 255 256 256 256 256 256 257 257 258 259 259 259 259 260 261 263 265 268 270
277 275 274 271 267 270 270 267 267 264 268 269 268 268 272 274 274 269 262 260 271 276 275 277 277 276 273 275 274 275 278 277 274 273 274 272 269 268 274 276 274 268 268 267 265 266 269 270 261 258 255 254 253 253 253 253 254 254 253 252 253 253 254 254 254 254 254 255 255 255 255 256 255 255 255 256 257 257 258 258 258 259 260 262 265 268 269
274 273 271 270 268 268 269 266 266 264 263 260 261 260 263 261 261 261 259 261 266 267 269 271 276 276 273 273 274 274 275 276 272 274 275 268 267 270 276 270 265 266 263 263 264 267 269 261 257 255 253 253 253 253 253 253 253 253 253 253 253 253 254 254 254 254 254 255 255 255 255 255 255 256 256 255 256 257 257 257 257 258 259 261 264 266 267
270 271 270 266 264 266 264 260 260 260 260 261 260 261 261 262 264 262 259 258 260 263 271 274 272 274 272 275 275 273 273 273 272 271 274 271 273 267 266 264 265 268 268 266 269 268 261 257 255 254 253 253 253 252 252 253 253 253 253 252 253 252 253 253 253 254 255 255 255 255 255 255 256 256 256 256 256 256 256 256 256 257 259 260 262 262 263
266 264 264 261 261 261 260 261 262 260 260 261 261 261 261 261 259 257 257 259 261 264 263 270 274 275 270 271 272 272 270 273 269 268 271 268 265 263 263 259 261 262 267 268 265 258 257 254 254 253 253 252 252 252 252 253 253 252 252 252 252 253 253 253 253 254 255 255 255 255 255 256 256 256 256 256 256 256 256 256 255 256 257 258 259 260 260
263 259 256 260 262 261 263 264 264 261 261 260 260 259 260 260 258 256 256 257 258 259 265 270 275 273 269 270 265 265 268 269 270 270 266 265 266 265 263 260 262 266 266 258 257 255 255 255 254 252 252 251 252 252 252 252 253 252 252 253 253 254 254 254 254 255 255 255 255 255 256 256 255 255 255 255 256 256 256 255 255 255 256 256 257 258 258
258 254 250 249 255 258 259 263 263 261 260 259 257 256 256 257 256 256 256 255 256 261 269 270 270 269 269 267 266 264 267 272 269 268 268 266 267 265 264 265 267 262 256 253 254 254 254 253 253 252 251 251 252 252 252 252 252 252 253 253 254 254 254 255 254 254 254 255 255 256 255 255 256 256 256 256 256 255 255 255 255 255 255 256 256 256 256
258 255 253 253 253 252 253 256 255 255 255 254 253 254 255 255 254 255 256 256 258 267 270 267 268 267 266 265 267 268 269 268 266 265 263 264 262 265 265 264 258 253 253 252 252 253 253 253 252 251 251 251 252 251 252 252 252 252 253 253 253 254 254 254 254 254 254 255 255 255 255 256 256 256 256 256 255 255 254 254 255 256 256 256 256 256 256
Wind_Speed
18 18 17 15 14 13 12 11 10 9 7 5 4 3 3 7 6 4 2 11 14 10 8 6 6 7 7 5 9 7 5 7 9 11 10 7 5 4 6 9 6 5 5 1 1 3 2 7 8 7 10 8 8 5 5 5 10 6 3 4 3 5 3 5 10 6 4 5 5 5 2 0 6 7 2 3 12 12 10 7 1 4 3 5 7 12 10
20 20 19 16 16 15 14 11 11 10 11 7 5 6 6 5 5 1 2 5 10 11 12 10 12 12 9 9 7 9 8 9 9 8 12 9 9 9 7 8 11 6 5 2 7 6 3 6 9 8 7 4 4 7 6 9 6 9 4 5 7 5 5 7 5 6 4 6 3 4 2 3 4 7 8 7 5 5 3 2 1 5 9 7 9 14 10
22 20 19 19 18 16 15 13 12 12 14 10 6 7 5 5 3 4 1 3 5 12 9 12 12 15 14 9 12 11 9 9 10 11 11 11 9 9 10 9 8 6 6 5 2 5 9 1 6 9 4 4 3 1 6 8 4 8 3 4 7 5 5 8 9 11 11 10 8 8 8 8 7 8 12 14 15 14 3 7 5 10 8 12 11 13 14
23 22 21 21 20 18 17 16 14 13 14 15 6 6 6 8 6 6 5 3 3 6 4 4 10 14 15 13 12 13 12 8 9 13 11 13 11 10 6 8 10 10 9 8 8 9 8 8 2 5 5 5 2 1 2 7 6 1 8 3 6 1 2 8 11 12 12 8 3 5 7 7 7 9 14 14 14 16 13 4 7 12 14 13 14 15 19
24 23 23 22 21 20 20 18 17 15 13 13 8 6 6 6 8 8 9 5 7 6 8 10 8 12 14 11 8 16 16 9 7 11 8 11 11 9 11 9 10 12 13 13 13 12 10 9 9 9 7 2 3 2 2 3 6 5 3 3 4 1 4 10 14 16 17 15 10 5 5 5 10 10 10 13 12 13 10 11 15 14 9 16 14 17 15
26 23 25 24 22 22 21 19 19 17 14 17 9 7 7 7 9 8 7 8 9 10 11 13 15 12 13 13 11 15 17 16 10 8 12 9 13 10 10 14 14 12 15 11 9 12 15 13 13 13 10 8 4 2 1 2 1 3 1 4 2 3 7 10 9 12 13 14 12 8 10 8 7 9 9 11 14 11 13 14 19 17 13 17 14 13 16
26 26 24 25 24 23 22 21 21 18 16 15 9 8 9 8 2 7 3 6 8 11 3 14 17 15 14 10 16 16 18 20 16 9 11 12 11 15 10 16 18 17 15 13 11 13 9 11 13 6 4 10 9 4 1 2 3 5 3 2 1 1 4 5 6 11 13 14 15 12 14 14 13 13 12 11 11 16 19 20 21 22 19 17 18 22 25
23 26 25 25 26 25 24 23 22 20 18 13 11 12 9 11 9 5 3 5 5 3 5 9 14 14 14 11 13 15 17 19 17 16 13 10 14 14 18 16 15 17 17 16 15 15 15 9 8 9 10 4 9 7 8 3 2 3 7 6 3 6 6 9 2 3 10 15 14 13 13 12 14 12 11 10 12 14 19 19 18 15 18 21 24 23 24
22 23 27 25 27 27 26 25 24 22 18 10 12 11 13 7 7 3 3 7 7 5 8 11 13 11 10 11 11 13 17 17 15 15 13 14 11 14 17 17 15 14 16 17 18 14 13 13 15 10 11 12 10 9 3 10 3 4 3 2 1 7 3 5 5 4 9 13 14 16 13 12 13 13 13 14 19 20 15 13 12 13 16 20 18 17 19
21 22 25 27 26 28 27 26 26 24 22 9 7 12 10 9 2 3 4 7 7 7 5 11 12 11 9 12 16 14 20 14 11 11 11 14 14 13 15 15 12 13 15 18 18 12 4 5 6 5 6 7 8 7 8 10 8 6 6 4 6 8 4 7 6 10 12 17 12 12 10 7 9 13 19 22 19 17 14 13 15 21 21 16 14 18 18
22 22 26 26 26 29 28 28 27 28 19 14 11 11 12 11 10 8 6 7 8 9 7 8 15 12 13 16 13 13 12 13 14 13 4 9 11 9 10 13 12 11 13 3 4 4 2 5 5 5 5 8 8 4 6 9 10 6 7 3 2 5 8 8 7 9 8 13 9 5 8 14 13 13 19 16 19 18 18 18 22 23 17 15 18 18 18
22 21 25 27 27 29 30 29 30 30 24 14 12 10 8 8 8 8 8 12 10 10 10 10 13 10 16 18 18 18 16 16 17 13 11 5 9 7 7 9 8 6 4 5 2 4 1 2 3 5 8 9 9 8 9 11 11 11 9 7 5 8 8 8 6 7 10 9 6 10 16 12 11 12 9 13 17 18 22 24 24 22 21 19 20 22 24
24 23 23 28 26 26 28 29 30 30 28 15 13 11 9 10 7 8 10 10 12 12 12 12 13 12 8 12 18 20 17 14 13 14 13 9 5 5 8 10 12 4 7 5 5 3 2 0 1 4 5 8 8 11 12 14 14 14 11 11 8 6 9 6 9 8 7 10 10 14 4 2 6 9 13 12 16 20 18 19 20 23 23 22 23 25 27
24 24 22 26 26 28 31 30 31 31 31 22 14 12 10 10 10 8 7 7 13 13 14 12 13 14 12 11 12 11 10 10 11 12 12 9 8 9 5 4 3 7 2 2 3 3 1 1 2 4 3 2 3 7 8 15 17 16 17 16 15 14 7 8 10 7 11 8 13 18 9 15 6 7 9 12 13 12 15 14 16 21 21 20 21 25 26
26 26 23 24 27 28 30 31 31 31 32 28 13 12 12 11 8 7 5 9 12 11 13 15 13 16 16 12 9 8 8 7 9 7 5 2 6 7 5 5 4 3 3 3 2 2 1 2 3 2 4 5 6 5 4 6 5 18 19 19 19 16 14 8 12 8 10 14 14 11 10 15 10 17 18 14 12 14 12 13 15 11 13 15 21 24 25
27 27 25 23 26 27 28 31 31 32 31 31 18 14 12 13 11 7 7 7 9 15 15 15 14 13 14 13 13 13 10 9 9 6 4 1 2 2 3 3 5 6 5 3 2 3 2 4 5 5 6 7 3 2 4 3 2 4 17 20 19 19 16 12 12 8 10 12 14 12 13 9 3 12 12 11 10 10 5 8 15 8 16 16 18 19 21
28 27 26 24 25 28 28 31 31 33 33 33 17 14 13 15 14 11 7 4 8 10 6 16 14 11 9 9 10 12 12 11 9 10 10 9 5 3 2 2 1 6 7 4 3 3 5 6 4 5 4 1 2 5 2 2 3 0 3 4 14 15 12 10 15 14 14 14 15 16 7 8 6 7 7 4 2 5 5 13 12 11 21 18 14 18 19
28 28 27 25 25 28 26 29 33 32 32 34 20 13 12 16 15 10 7 5 7 8 11 11 15 12 14 12 10 9 8 4 7 0 6 4 4 3 3 3 2 3 7 6 5 7 9 8 10 8 10 4 1 2 7 2 5 3 3 5 6 9 11 14 17 12 15 19 16 10 9 8 10 15 15 3 1 6 12 16 5 9 10 10 14 17 14
28 30 30 25 25 26 26 27 31 32 32 34 21 12 11 14 16 14 8 6 7 8 7 11 13 15 9 7 6 7 6 10 9 7 5 6 4 5 7 1 4 5 6 7 7 10 9 8 5 8 9 6 6 8 1 10 6 3 3 5 1 4 4 5 10 16 15 12 16 11 10 2 2 12 16 3 5 12 16 10 8 8 9 8 11 14 13
28 28 29 28 26 27 25 27 30 32 35 36 24 13 13 16 16 19 14 13 8 10 5 4 8 16 12 12 9 9 6 8 9 8 7 6 5 10 4 5 2 2 7 6 10 6 9 11 9 5 10 8 6 3 9 11 5 7 1 3 7 5 5 7 8 4 8 10 14 12 11 4 7 6 8 4 9 6 9 12 10 1 5 7 9 9 7
29 29 30 29 28 26 24 25 30 31 33 33 26 11 10 11 15 16 15 11 9 10 10 4 3 9 13 14 12 11 13 11 11 10 7 4 5 9 8 8 10 8 8 8 11 11 5 9 9 7 5 7 5 6 10 7 11 9 10 4 5 4 9 7 7 5 10 9 10 6 1 0 4 6 4 4 6 11 13 10 13 16 12 10 12 11 9
29 29 29 30 29 26 25 26 29 33 32 34 31 15 11 12 13 14 14 11 9 7 1 4 5 6 5 3 5 8 11 12 13 9 7 5 4 5 0 2 3 5 3 4 4 4 6 5 4 8 10 7 5 11 4 10 12 3 5 7 13 9 12 3 10 2 6 5 5 1 3 2 3 1 4 8 10 9 7 7 7 7 11 10 10 13 17
29 29 30 30 28 27 27 26 30 30 33 35 26 15 14 11 13 15 12 10 2 3 3 1 1 1 1 3 0 3 4 4 2 10 10 9 6 3 3 3 2 1 1 1 5 4 2 6 9 2 3 3 4 4 1 3 4 3 7 4 5 6 3 4 2 3 4 6 9 11 5 5 10 5 4 10 12 12 9 8 6 9 10 9 10 10 12
30 31 30 31 29 28 28 26 29 29 31 33 25 14 13 13 12 12 8 5 8 9 4 2 4 8 9 13 7 2 1 2 3 1 3 5 9 6 4 4 2 3 1 0 3 0 1 1 3 2 5 4 2 6 6 8 8 2 3 2 0 2 4 1 2 2 6 5 3 2 8 9 8 13 13 9 8 10 9 6 5 8 10 11 10 10 9
31 30 28 31 28 28 29 28 29 33 33 36 28 15 10 11 12 12 11 10 9 11 8 7 11 7 8 6 6 5 8 5 4 4 4 3 8 9 7 3 3 2 3 4 1 1 2 4 3 3 6 4 4 7 4 8 8 4 9 6 5 6 4 5 3 4 6 7 10 16 16 16 15 13 10 11 11 5 3 7 7 9 10 11 12 9 11
30 26 29 33 29 28 29 28 29 32 33 34 24 14 14 14 15 16 9 2 2 5 11 9 7 7 8 7 7 5 6 7 6 5 6 6 6 8 6 4 0 2 1 3 3 4 4 6 5 7 7 6 5 6 7 6 7 3 7 4 6 7 10 6 4 11 9 12 14 16 16 12 11 9 7 7 9 9 11 9 7 8 10 13 13 8 9
29 30 32 28 29 28 26 27 26 30 34 34 21 13 11 9 13 17 16 14 11 3 8 9 5 2 5 12 7 7 6 7 7 8 7 8 9 7 8 8 6 4 4 2 3 3 4 7 8 10 7 7 3 5 6 6 6 5 8 7 7 8 10 8 9 13 10 10 10 8 12 11 10 12 12 12 11 9 11 12 12 10 11 12 13 14 11
29 30 32 30 29 26 26 29 27 31 32 30 17 12 10 11 13 12 10 12 10 3 10 11 7 3 3 2 10 11 10 9 9 9 11 12 12 11 12 12 10 6 6 6 8 7 7 9 11 6 5 4 6 7 4 6 4 7 9 11 8 12 8 6 9 9 10 10 12 10 13 14 14 15 16 15 9 9 10 12 10 13 14 15 15 15 16
31 32 31 29 28 27 26 28 28 28 33 25 12 10 9 9 11 13 13 9 3 3 6 4 6 8 6 4 8 9 9 11 12 12 12 12 12 11 12 13 11 9 6 5 6 8 9 8 5 8 7 5 5 5 4 10 9 13 9 12 13 12 12 15 15 16 16 14 17 16 14 14 16 17 15 13 11 10 10 11 13 14 15 15 14 13 15
27 27 29 28 27 27 28 29 30 31 29 13 9 3 4 1 7 12 11 10 7 5 6 8 5 4 3 4 3 8 10 11 12 14 14 12 14 13 12 12 11 9 5 6 7 10 9 7 6 5 7 4 5 2 9 8 12 11 9 14 14 14 13 13 14 15 14 13 13 14 15 14 12 14 14 14 13 10 11 13 15 17 17 14 13 14 13
31 30 29 26 26 26 27 30 28 30 23 13 11 4 6 5 6 10 14 12 8 5 4 4 4 4 2 1 3 8 11 9 12 12 13 13 11 11 10 10 8 8 9 7 8 10 6 7 5 6 4 8 6 6 10 11 13 9 12 13 14 14 11 9 8 9 10 11 13 14 14 15 13 14 17 18 17 16 14 13 15 15 14 13 13 13 12
31 31 27 26 26 25 29 31 31 27 16 15 15 9 7 8 13 17 16 11 6 3 7 7 6 4 3 2 1 1 6 10 8 7 6 7 8 8 7 8 7 7 7 8 6 5 9 9 9 8 8 10 11 7 9 12 14 13 13 15 13 11 8 9 9 10 11 12 13 15 15 15 13 15 15 19 20 18 18 16 13 13 12 10 10 10 11
30 29 27 26 26 26 27 28 29 22 14 8 10 10 14 21 26 24 15 11 5 1 1 5 4 4 3 4 4 2 4 6 5 7 6 7 6 6 4 4 5 5 6 6 5 5 4 7 7 10 10 6 5 4 10 13 14 14 17 15 12 10 10 10 11 12 14 12 8 10 12 12 13 16 17 18 20 17 13 13 13 11 7 9 13 14 14
29 25 22 26 26 26 26 28 29 24 16 8 5 1 6 26 26 26 17 9 4 1 1 4 5 5 4 4 4 4 8 7 6 8 6 6 3 6 6 5 7 6 6 9 5 6 5 6 10 10 6 8 6 7 11 10 13 17 15 15 8 6 6 7 9 9 7 8 8 6 9 12 14 15 18 19 20 20 19 16 12 13 14 14 15 18 18
24 24 27 25 25 26 28 27 16 11 10 8 4 2 7 27 26 26 19 11 9 2 3 1 3 7 4 2 3 6 4 4 7 9 7 6 5 6 6 6 6 7 4 4 4 7 9 7 4 7 10 7 10 11 8 11 15 15 13 9 8 8 8 8 7 8 11 11 10 13 13 14 16 16 16 17 19 18 18 17 16 17 15 16 17 18 18
25 28 25 26 28 22 14 15 9 9 6 6 5 8 21 24 25 15 9 4 2 5 5 4 5 9 8 7 7 3 5 3 4 6 4 4 4 4 3 4 6 6 2 5 8 8 9 7 5 6 6 11 10 8 9 9 12 6 6 8 7 6 3 5 11 16 14 13 13 12 14 11 10 12 13 15 16 16 19 21 20 16 16 17 18 19 17
27 27 28 25 14 8 7 4 4 3 8 10 15 20 23 17 7 5 4 2 2 1 3 7 5 9 10 4 2 3 6 6 7 5 7 5 5 5 6 4 7 4 5 4 6 10 9 6 5 6 9 11 9 3 9 8 7 6 5 5 5 4 4 5 8 11 16 17 16 9 5 9 13 10 10 12 14 13 15 16 17 18 20 19 17 17 17
27 26 13 8 8 7 4 2 4 14 30 31 24 11 3 1 6 4 3 3 1 2 1 3 6 4 3 3 2 5 4 4 7 6 6 5 5 2 4 5 5 4 5 5 8 5 2 3 5 8 8 2 6 8 7 7 6 6 5 5 4 5 5 6 7 8 10 16 18 15 16 15 12 11 7 14 15 14 13 13 13 15 18 21 20 19 18
20 8 4 2 3 4 4 6 17 28 17 7 4 3 2 0 4 3 4 2 2 2 2 4 7 6 7 6 4 4 1 6 8 6 5 7 5 3 3 4 4 3 3 2 4 10 5 6 7 7 10 5 3 4 5 6 5 5 5 4 5 5 6 6 5 5 6 8 11 10 8 11 15 19 15 13 15 15 14 14 15 14 15 18 20 21 20
7 6 5 4 3 5 11 19 27 15 4 5 1 3 4 1 3 3 1 4 2 2 3 5 3 3 7 9 10 6 2 4 8 9 8 3 0 3 3 3 3 3 4 7 4 4 4 6 5 7 10 5 4 5 5 5 5 4 4 6 6 6 6 6 7 6 9 12 12 13 12 13 14 15 17 16 15 17 19 19 17 14 17 19 22 22 22
4 5 4 5 6 7 6 7 4 3 2 3 2 1 2 3 2 1 3 2 1 3 0 2 3 2 1 2 7 7 2 2 2 2 2 2 1 4 2 2 2 3 3 5 1 3 1 0 3 5 6 2 2 5 5 5 5 7 5 5 7 6 6 7 7 8 9 11 10 10 11 12 14 14 14 16 17 18 18 18 17 16 15 16 21 23 21
4 5 6 8 7 9 6 5 2 3 2 1 3 2 1 2 2 3 0 3 3 3 2 3 6 8 7 7 5 4 1 1 0 1 2 2 2 2 1 1 1 2 2 2 2 1 1 3 2 5 1 1 2 4 5 7 7 8 10 9 8 7 7 8 10 9 8 11 11 11 11 11 13 14 14 15 16 17 18 18 19 19 17 19 19 19 20
26 17 8 6 3 3 0 4 2 1 4 2 3 3 1 4 1 3 3 1 2 1 3 2 1 5 3 1 3 2 2 2 1 1 1 3 2 1 1 0 1 1 1 3 1 2 3 3 3 2 4 1 3 4 4 5 7 8 9 9 6 7 8 10 10 12 11 11 12 12 12 13 13 13 14 16 18 22 20 17 18 19 19 18 18 18 18
8 6 6 2 4 2 1 6 1 3 3 1 5 6 4 4 1 2 2 4 4 2 4 9 9 11 9 2 4 4 3 1 2 1 2 1 2 2 2 1 3 0 3 0 1 2 3 2 1 2 2 2 2 4 7 8 9 9 8 8 9 9 9 10 11 10 10 9 9 10 12 12 14 13 13 13 14 19 20 17 14 15 19 17 17 17 14
4 4 3 2 3 1 2 2 1 2 3 2 1 2 4 9 8 7 6 1 1 5 6 4 8 8 7 1 2 2 2 4 2 2 2 2 2 1 2 2 1 0 1 2 1 1 2 3 2 2 2 4 5 6 7 7 9 9 10 11 10 10 9 10 10 10 10 11 13 13 13 13 13 13 13 12 13 13 15 17 15 15 15 14 16 16 12
4 3 2 5 3 2 1 2 2 1 1 0 0 0 2 3 5 5 3 2 2 6 7 5 4 6 6 1 2 3 3 2 4 2 2 1 3 3 2 1 2 1 0 0 1 5 5 1 2 1 3 4 6 7 7 8 8 8 9 11 12 13 12 11 10 11 12 13 12 12 13 12 13 14 14 13 13 14 13 14 13 14 15 15 15 13 10
3 2 2 2 4 0 1 2 1 2 1 2 2 2 2 3 4 5 2 3 2 2 3 2 2 3 7 3 2 1 1 0 2 2 2 2 2 1 1 1 1 2 3 3 3 4 2 2 1 3 3 5 6 7 7 8 8 10 10 11 12 12 12 12 12 12 12 12 13 13 12 12 13 13 13 13 13 12 13 13 14 15 14 14 12 9 7
3 0 1 3 3 1 2 1 1 3 4 4 2 2 1 1 2 4 4 4 3 3 4 9 7 4 4 1 1 3 2 0 2 0 1 1 2 2 1 0 2 2 2 3 6 1 2 2 2 3 4 5 6 8 8 9 9 11 11 11 12 13 13 13 13 12 12 14 14 13 13 13 13 13 13 13 14 13 13 13 14 14 13 11 9 7 6
5 3 3 3 1 2 3 1 3 4 4 4 3 4 3 5 5 3 3 3 2 2 4 1 4 4 3 0 2 2 2 1 2 3 2 0 1 3 3 3 2 3 2 0 1 3 1 2 2 3 4 5 6 7 8 8 9 9 10 11 11 11 12 12 12 13 13 12 12 13 12 13 13 12 12 12 12 12 12 14 14 13 12 11 9 7 6
5 6 8 4 4 5 2 1 4 5 2 2 2 4 3 4 4 3 5 2 2 3 2 1 2 3 2 1 2 1 1 0 1 1 1 2 2 1 2 2 3 4 2 1 2 2 2 1 3 4 4 6 7 7 8 9 9 9 9 9 10 10 11 12 13 13 12 12 13 14 15 13 11 10 10 11 10 11 12 12 13 14 14 13 10 8 8
3 7 4 3 1 2 1 4 3 5 5 2 3 3 3 2 3 2 6 3 3 1 0 2 2 3 3 2 2 2 1 2 2 2 3 2 2 3 3 6 2 2 3 2 3 1 1 2 3 3 5 6 6 7 7 9 10 10 10 9 11 12 12 12 12 12 12 12 12 13 12 12 11 10 10 9 9 9 9 9 11 10 10 10 10 11 9
4 5 2 3 5 4 3 1 5 6 5 4 3 3 3 2 3 3 5 3 2 2 4 1 2 3 2 3 2 1 2 1 1 1 0 1 1 3 2 0 2 3 2 2 1 1 2 2 2 3 4 6 7 8 9 9 10 10 9 9 10 11 12 11 10 10 11 11 12 12 12 11 11 9 8 8 9 9 8 8 10 11 10 7 8 11 10
Wind_Direction
230 228 229 226 224 231 240 240 239 227 212 206 202 190 212 209 221 45 232 170 161 164 211 184 194 219 228 230 224 196 168 202 177 176 178 195 180 162 206 217 215 277 248 71 95 176 150 197 210 218 222 241 222 100 156 140 166 193 192 168 205 76 222 215 240 228 113 93 106 71 32 284 268 254 280 220 217 211 225 236 266 226 169 205 231 240 266
233 227 228 224 219 217 225 230 236 227 200 211 185 199 214 206 232 202 40 223 189 179 198 202 208 219 222 221 237 204 202 188 173 191 183 191 182 201 194 205 211 199 176 165 175 183 223 212 231 240 230 229 54 136 130 169 175 196 169 221 148 188 196 227 222 228 217 182 149 201 117 209 238 231 208 225 255 243 237 53 68 253 224 232 233 245 237
233 232 223 221 222 218 216 222 227 229 212 215 213 201 203 210 226 278 202 40 216 202 206 209 206 216 215 196 217 211 216 223 197 185 196 197 211 195 214 208 185 198 158 172 108 188 208 206 229 252 263 229 76 185 191 185 218 208 34 44 143 200 184 184 211 217 217 213 209 211 187 196 207 219 230 213 208 213 173 228 205 242 228 239 236 250 259
229 230 227 221 217 216 215 215 218 225 218 209 208 223 187 198 196 192 226 172 36 272 334 319 226 213 212 213 217 213 219 202 218 211 210 191 207 210 207 196 211 201 175 189 186 200 216 219 170 194 223 221 137 13 246 198 218 239 128 175 154 198 299 222 217 226 232 237 82 22 126 148 184 204 208 215 213 213 216 226 230 225 235 242 238 244 259
234 226 226 222 218 212 210 214 214 214 213 205 199 222 228 201 230 169 190 183 242 233 226 230 237 225 202 216 194 217 219 208 213 208 230 204 204 207 215 202 204 216 220 222 224 213 211 209 246 218 222 199 113 50 51 352 23 77 96 359 81 65 235 226 234 244 253 262 295 75 124 180 204 211 210 214 214 208 209 212 228 225 245 252 240 240 247
235 228 225 223 220 216 213 211 214 211 203 194 202 211 204 219 220 226 194 201 187 203 223 215 221 228 219 222 211 221 219 214 213 200 228 202 206 213 218 214 213 206 204 210 223 215 225 212 221 234 234 236 173 116 103 134 177 117 47 356 144 158 234 241 248 260 265 270 271 262 276 262 254 243 228 207 206 203 208 225 233 231 228 244 255 259 251
238 232 229 223 219 217 212 207 211 208 200 186 203 203 208 239 259 230 238 230 210 214 202 192 208 213 213 226 222 220 219 219 209 194 200 220 217 210 220 213 214 219 217 219 231 222 222 223 226 229 214 223 226 227 170 177 100 120 46 54 281 77 256 283 256 270 277 276 271 268 267 270 262 254 254 256 224 205 209 222 226 228 237 248 259 263 262
236 234 225 225 220 214 211 207 207 206 196 186 208 216 201 200 208 205 231 269 241 191 178 177 198 214 209 220 220 222 219 221 216 211 200 200 216 203 224 224 213 217 221 223 225 224 227 231 230 208 216 220 209 227 203 121 357 148 172 158 243 157 226 200 211 252 267 268 268 267 259 260 260 257 257 250 258 247 219 220 229 234 242 244 246 251 262
238 234 231 223 223 215 211 209 204 203 188 202 209 217 221 223 212 275 202 215 227 215 201 194 192 200 199 217 218 217 217 221 210 213 199 211 205 203 216 220 227 221 221 223 229 230 234 230 242 248 220 233 194 199 186 182 157 176 141 140 210 175 240 139 163 226 252 247 249 255 253 245 248 256 249 240 236 238 236 232 225 227 234 237 242 251 254
239 238 233 226 223 219 211 208 205 202 190 200 198 223 212 231 254 245 236 230 197 200 194 210 197 213 195 204 212 211 217 221 211 223 210 214 223 219 215 222 223 228 223 224 229 237 272 336 7 19 358 335 324 255 254 203 169 170 185 163 167 176 200 209 177 222 238 252 232 243 247 249 245 235 236 232 230 233 238 244 238 232 232 239 239 240 246
243 239 235 228 226 223 213 208 207 202 193 196 201 215 210 202 197 195 216 233 218 206 196 210 211 210 195 203 216 216 227 214 212 212 187 200 223 232 226 224 224 233 235 213 77 85 358 332 339 348 315 293 285 294 262 261 244 195 167 167 174 180 209 224 210 237 252 253 253 231 234 233 228 224 230 217 222 224 228 232 233 236 228 232 239 250 256
250 239 238 230 221 221 214 209 207 203 200 203 200 213 215 204 212 206 197 218 226 208 210 209 206 209 220 209 209 208 209 213 213 207 221 187 210 196 199 214 208 227 101 120 163 46 31 209 305 293 280 274 273 271 265 258 251 234 203 192 164 195 198 231 219 237 245 264 261 252 232 234 229 237 233 218 221 220 221 226 232 237 237 240 247 251 252
251 246 239 233 224 224 226 215 210 204 202 204 201 207 196 200 202 192 198 210 222 210 212 219 213 217 224 212 213 216 211 215 214 214 220 176 159 186 203 213 215 163 116 109 103 67 68 233 317 294 290 291 277 275 261 253 251 244 237 227 211 199 197 212 227 234 262 260 248 250 195 165 236 245 225 209 207 218 229 244 243 244 242 237 236 240 245
250 250 240 238 229 222 220 215 213 211 204 203 205 204 189 177 195 198 196 201 224 223 219 227 220 213 209 206 201 197 201 207 201 205 216 207 179 177 180 194 141 99 94 104 83 134 178 122 284 235 249 180 258 253 241 244 238 237 237 234 226 225 228 219 240 201 240 233 242 248 303 291 232 252 230 209 212 205 212 237 237 235 235 235 240 245 248
250 249 246 242 232 227 220 217 215 210 210 202 208 204 196 180 184 203 202 214 221 223 218 221 211 209 207 206 179 169 176 175 174 190 191 166 202 199 169 139 95 118 140 164 94 64 181 250 241 198 231 207 216 238 176 243 210 222 227 229 230 227 228 191 229 217 213 233 250 256 246 249 236 233 246 237 225 229 226 233 253 249 244 230 234 238 245
247 247 245 241 238 232 222 215 211 213 213 207 207 210 204 190 177 186 213 212 206 226 216 221 223 211 212 212 197 185 190 187 197 186 184 199 184 144 76 102 148 153 153 92 170 134 168 200 224 216 224 232 236 249 221 196 249 204 208 214 220 222 221 224 226 237 226 228 236 240 242 241 232 256 253 254 250 247 249 242 255 232 250 236 235 242 245
246 245 244 241 239 232 225 219 213 212 211 208 204 205 210 192 191 178 171 225 219 229 174 205 216 223 214 204 195 207 206 209 187 201 205 208 195 145 79 47 178 170 171 164 173 173 193 209 222 249 263 74 107 232 266 303 259 122 27 225 224 217 215 215 231 229 231 241 242 244 238 259 252 271 268 264 240 231 221 251 247 233 240 245 241 243 245
245 244 240 238 237 233 224 222 214 211 212 210 206 198 203 193 192 153 170 188 222 238 235 208 195 208 210 201 196 188 190 196 196 205 234 193 141 163 160 148 103 252 202 215 196 217 223 220 222 215 233 195 184 332 239 194 214 178 174 173 198 214 222 224 229 221 230 233 250 257 256 260 273 272 277 271 181 189 224 236 247 236 247 243 245 248 241
245 244 240 234 235 235 226 218 217 210 209 209 205 208 204 185 187 186 174 178 202 233 207 228 215 211 210 204 196 165 173 175 187 200 204 224 206 158 135 174 202 198 183 213 209 226 221 226 222 234 243 219 176 223 154 242 242 255 147 173 162 260 243 242 231 232 235 234 241 242 264 253 296 245 257 239 113 230 245 254 278 292 275 256 253 258 248
242 243 243 237 234 233 229 220 220 216 212 205 200 204 195 190 187 190 185 196 197 226 238 210 213 219 210 201 174 178 142 183 199 199 199 209 120 124 134 186 202 156 192 183 219 212 224 227 221 216 226 232 228 171 234 236 253 238 152 201 244 210 213 214 221 225 239 238 247 243 242 105 232 289 279 131 231 282 296 318 324 335 295 268 262 259 261
241 240 239 240 237 233 229 220 218 210 210 211 201 193 196 187 189 196 202 199 185 211 223 177 274 235 221 212 194 183 179 192 186 200 208 215 152 156 194 196 186 177 198 184 204 206 205 222 216 222 232 234 216 208 231 244 236 213 227 236 242 157 255 240 246 204 248 227 227 236 107 191 6 16 293 7 315 340 331 343 318 329 326 334 329 325 342
241 240 238 239 237 234 231 224 218 211 204 203 198 196 200 183 188 192 197 201 211 209 236 163 180 226 250 285 247 226 212 204 200 198 207 193 184 218 294 62 168 172 194 198 189 222 218 228 236 225 226 219 214 241 250 238 243 172 197 190 245 162 233 263 263 189 234 258 266 358 327 325 330 332 262 283 303 315 315 299 291 291 307 337 322 319 322
240 240 237 236 236 234 230 223 221 217 208 199 193 193 196 171 185 185 177 193 177 54 61 163 183 351 318 262 237 76 64 16 287 213 213 225 202 208 182 155 200 48 34 343 198 213 244 224 233 240 253 257 237 256 265 240 283 234 239 205 278 37 61 316 296 263 263 240 248 271 298 344 321 317 263 289 300 295 299 291 298 293 283 273 272 282 297
237 236 234 231 231 232 230 222 224 212 209 208 195 186 194 184 165 164 168 180 197 197 199 199 162 211 201 213 181 111 134 241 218 221 6 240 232 216 213 251 97 56 36 13 11 172 233 214 224 252 245 239 218 237 237 242 229 259 316 293 282 298 33 37 237 335 325 269 164 138 305 303 314 317 307 277 241 259 283 305 277 268 276 273 268 266 246
235 235 232 231 229 231 230 224 217 213 206 202 194 196 182 172 163 164 159 166 177 191 208 185 213 197 193 198 115 191 211 200 180 178 198 215 235 234 221 181 203 209 218 156 134 205 246 256 234 230 244 236 235 250 224 252 259 227 264 265 278 269 173 273 260 253 254 276 305 303 304 296 299 298 304 302 307 306 231 224 256 262 264 269 270 269 274
232 232 233 231 225 226 231 225 214 213 208 196 183 177 183 175 171 172 163 94 106 187 203 214 197 160 128 151 184 185 171 184 160 177 205 222 226 236 239 102 131 150 208 109 161 227 244 245 249 259 255 253 216 245 243 239 276 284 271 266 278 302 344 274 358 300 278 284 283 281 276 269 268 271 279 303 305 305 301 286 257 259 268 277 281 270 266
230 228 231 230 228 225 224 223 212 211 204 196 183 180 181 179 163 167 172 160 142 190 214 223 181 45 188 204 194 193 159 175 192 203 221 227 235 232 239 242 222 161 163 183 204 226 234 246 244 244 232 241 257 258 260 258 242 243 253 250 241 260 242 257 272 268 274 269 290 305 293 301 294 285 292 297 299 297 292 293 291 284 288 290 297 297 284
229 228 229 223 224 222 224 220 209 207 201 184 172 176 173 169 176 185 184 177 171 164 173 191 178 171 113 245 204 195 186 193 190 202 212 218 220 225 228 225 223 212 206 206 222 214 222 228 231 232 249 246 252 248 227 260 280 267 252 249 236 249 245 251 255 249 260 278 271 275 283 282 285 291 291 289 291 291 292 289 283 292 293 297 297 296 296
227 224 221 218 219 217 218 218 204 204 199 176 160 163 175 177 175 180 185 195 84 93 98 120 104 142 167 202 171 189 189 190 199 204 207 211 211 212 217 219 217 214 206 204 224 232 229 231 226 233 223 209 216 257 247 241 230 242 235 231 232 241 243 246 253 263 264 269 277 275 268 270 279 277 278 278 284 290 284 279 282 281 282 289 291 285 283
224 223 222 212 213 215 212 209 202 198 190 159 138 107 137 44 170 180 188 182 161 135 131 147 153 186 107 51 134 182 178 189 199 201 208 208 213 215 216 219 220 212 207 219 207 229 225 236 230 229 237 224 230 246 244 248 254 251 238 243 242 242 230 232 239 251 265 263 264 272 277 279 278 285 285 284 281 280 279 282 279 282 283 284 287 287 281
223 217 218 215 212 213 209 202 191 185 160 149 156 148 161 159 182 186 180 181 178 159 157 152 146 108 98 26 89 175 173 180 196 202 209 215 217 218 223 224 231 217 223 213 221 225 220 226 219 224 201 207 221 236 240 248 254 253 245 246 247 251 251 252 248 246 250 257 267 273 275 279 286 286 281 281 279 275 271 266 267 266 268 277 276 275 278
216 215 213 212 210 208 207 198 191 162 146 166 177 189 193 199 174 165 162 158 134 136 167 165 164 130 168 144 113 332 169 167 176 192 206 207 220 219 225 210 221 193 215 231 229 225 224 230 232 224 222 201 207 237 239 246 249 250 247 244 245 251 253 262 269 273 274 277 281 280 276 274 270 270 280 284 284 283 278 275 268 275 283 281 282 279 274
212 209 206 208 204 199 202 203 171 152 167 121 43 67 106 105 129 145 149 139 134 181 161 182 176 166 172 182 114 357 146 132 169 182 203 188 209 180 205 181 214 230 202 222 204 224 207 219 223 236 224 200 219 224 234 234 240 245 248 254 259 263 266 269 274 277 269 277 313 302 296 304 310 305 293 285 288 289 288 283 284 288 293 288 285 283 277
206 207 205 204 197 195 188 183 161 141 129 132 159 287 150 134 140 146 140 124 100 70 50 163 163 139 149 110 118 175 165 155 174 170 188 176 189 174 199 182 195 215 191 206 215 230 224 224 216 233 235 222 217 246 243 237 237 247 251 258 285 330 334 304 280 278 338 6 348 326 302 302 307 307 307 297 284 281 281 281 280 280 279 277 276 274 274
200 198 199 193 187 182 175 159 136 141 158 150 124 26 169 142 143 142 144 149 135 162 126 272 165 157 147 136 192 161 185 178 176 176 189 168 158 186 184 190 185 203 194 152 231 215 217 217 204 225 220 218 220 228 236 240 243 247 256 260 35 346 352 332 306 1 332 327 334 313 310 316 317 312 303 300 299 298 297 292 287 283 278 273 272 273 273
195 189 186 182 178 161 144 130 136 137 145 155 130 156 155 148 144 138 112 58 103 142 145 168 159 184 165 170 181 156 143 179 173 151 186 127 142 202 210 187 214 200 183 178 202 199 222 194 202 233 222 233 226 221 233 237 246 258 53 56 32 38 347 307 305 316 313 308 303 305 303 308 313 310 315 314 316 317 317 312 302 290 280 277 275 275 274
179 172 165 152 128 94 124 140 115 178 159 132 133 136 120 102 55 59 24 51 9 340 144 145 153 189 189 177 97 144 151 166 162 141 175 161 172 175 187 205 223 182 166 208 211 218 222 199 213 221 215 224 232 55 50 48 39 27 27 31 23 7 349 329 327 323 315 309 306 302 334 337 319 310 309 305 303 309 313 307 311 316 311 300 289 281 275
156 140 125 129 125 121 78 102 143 125 113 116 110 90 9 63 133 126 100 90 263 87 358 142 173 142 145 140 159 179 132 170 142 152 170 181 161 195 182 213 222 207 220 211 219 172 195 197 220 231 242 187 64 64 44 47 43 48 38 17 1 359 337 330 327 331 326 320 315 331 341 324 308 303 317 309 309 307 297 292 295 292 292 294 295 292 290
127 114 96 88 115 138 132 142 137 118 112 98 42 89 54 322 127 116 144 126 106 112 175 159 177 149 156 169 123 113 185 164 157 169 164 193 162 203 171 175 222 189 250 224 223 151 200 206 220 221 242 199 157 67 41 33 42 43 23 3 347 337 332 320 323 306 288 269 284 308 298 296 305 305 309 303 296 292 285 289 291 288 290 291 290 291 289
108 104 120 101 55 94 114 126 120 112 107 79 10 99 111 329 142 151 111 100 107 155 130 181 181 153 180 171 155 179 238 182 163 186 179 147 209 193 182 171 249 137 212 208 204 129 199 218 195 217 235 230 131 55 19 11 357 356 356 348 334 326 322 314 302 292 285 285 286 284 283 277 278 278 288 294 296 295 296 293 289 286 291 291 290 288 285
86 91 79 98 120 105 101 113 77 64 75 111 92 82 116 73 17 86 108 102 105 152 34 170 116 133 124 166 161 160 138 38 16 37 134 160 141 100 86 187 235 118 239 214 189 101 198 280 221 203 231 63 60 8 354 348 340 328 342 329 331 315 318 307 298 295 295 292 293 289 284 282 279 278 278 281 284 282 281 286 292 290 289 286 285 283 283
97 95 107 100 95 108 95 36 51 92 65 20 102 63 72 90 83 59 352 141 167 151 223 181 171 171 173 172 175 123 104 13 66 134 135 186 206 126 219 73 4 161 216 191 69 170 196 222 197 225 99 106 41 6 340 340 334 336 326 333 323 323 312 308 302 299 295 293 292 291 287 285 284 283 283 283 280 280 283 287 288 289 289 290 289 285 281
95 91 83 96 74 51 156 75 350 101 113 82 97 69 64 110 124 124 144 93 353 134 152 40 25 74 22 63 51 15 118 159 139 152 152 151 116 72 165 174 136 192 209 80 151 195 195 203 220 222 85 124 41 336 0 324 323 309 309 313 314 308 311 305 305 301 298 292 288 287 289 287 284 283 283 281 283 284 281 280 285 292 294 295 292 285 277
81 82 65 19 61 356 102 105 148 80 48 343 148 147 149 108 207 101 120 175 168 174 179 159 179 152 155 172 142 137 129 98 123 103 58 37 103 177 142 197 207 207 57 7 194 201 217 207 214 77 110 53 27 6 342 334 328 318 311 318 319 316 311 309 304 303 299 290 284 290 295 292 289 287 286 281 282 287 292 290 288 292 292 295 289 284 280
98 64 79 73 55 306 57 46 339 96 144 179 138 144 155 167 167 180 174 81 98 171 136 154 157 147 122 110 69 26 160 145 148 137 194 142 111 162 149 210 127 97 166 216 183 214 7 243 112 124 54 4 356 345 333 328 325 318 316 317 315 321 322 314 312 308 305 310 308 309 303 302 301 296 294 289 288 289 292 296 304 301 295 296 293 291 289
77 101 112 108 88 340 83 100 84 133 272 302 159 19 178 169 146 140 41 299 138 128 140 146 125 106 91 342 118 149 125 133 142 176 120 115 133 205 179 39 49 134 161 344 219 217 229 154 86 57 31 353 334 330 328 320 323 319 333 324 325 321 319 318 314 313 311 311 311 306 304 306 303 301 301 303 303 299 300 300 305 302 300 296 292 297 307
76 32 79 61 83 74 19 126 172 25 33 44 32 13 34 56 23 68 38 350 51 17 54 8 89 108 125 138 112 53 38 114 133 152 108 122 173 182 59 139 205 179 174 216 222 234 216 107 69 51 360 340 327 326 322 325 327 333 325 321 318 315 315 315 314 313 310 310 307 309 306 306 299 297 297 303 306 309 307 311 311 310 302 297 304 309 315
84 313 55 88 110 73 61 37 92 105 38 55 42 28 27 264 106 68 21 359 328 292 139 119 100 94 68 296 25 124 107 269 92 260 161 163 56 56 144 112 225 220 199 204 225 115 75 70 39 19 349 341 330 328 326 328 331 330 328 320 317 315 316 316 315 315 317 316 314 313 308 300 295 298 300 300 305 313 319 320 318 315 312 312 317 333 353
69 51 68 106 73 89 70 89 104 57 43 44 45 31 30 68 70 69 342 330 344 23 333 73 119 118 115 11 84 117 150 222 151 177 97 140 163 193 157 207 188 220 225 224 104 93 69 58 13 19 337 343 333 331 324 324 323 324 323 319 313 313 312 310 312 313 317 317 316 308 300 302 303 301 304 311 313 317 326 326 326 327 330 329 335 349 12
48 36 20 50 89 37 39 90 74 85 67 40 31 48 21 67 77 33 342 351 356 338 268 138 6 77 106 110 73 18 130 184 145 90 96 196 184 154 101 222 212 211 187 101 97 86 53 6 16 351 352 339 330 329 329 324 323 316 313 313 315 315 316 315 314 320 321 321 314 308 306 307 306 308 316 320 319 320 322 328 335 337 342 345 350 8 20
48 85 116 288 355 92 296 151 152 150 143 88 52 21 13 37 35 28 2 356 331 304 202 122 136 114 118 71 112 130 193 142 134 188 182 189 148 168 198 223 208 77 84 70 67 56 47 14 8 350 336 329 328 321 324 319 319 312 309 315 324 326 325 325 325 324 323 317 312 313 314 314 315 317 317 323 328 331 337 347 352 344 346 354 3 13 31
48 60 36 45 39 40 3 32 37 48 54 65 51 11 358 57 359 330 332 325 300 185 137 153 114 111 108 159 184 101 58 69 169 73 170 233 125 191 196 90 86 98 82 93 65 37 27 358 15 349 331 321 326 327 320 319 317 316 322 327 327 328 330 331 330 327 321 323 321 322 322 324 327 327 327 335 347 358 3 355 347 349 352 4 9 18 32